Weather History for Elbow Lake, MN

Change the Weather History Date:

Saturday, January 5, 2013

  Actual Average (KFFM) Record (KFFM)
Temperature  
Mean Temperature 8 °F -  
Max Temperature 14 °F 16 °F 55 °F (2012)
Min Temperature 3 °F -2 °F -25 °F (2014)
Degree Days  
Heating Degree Days 56    
Moisture  
Dew Point 7 °F    
Average Humidity 90    
Maximum Humidity 93    
Minimum Humidity 79    
Precipitation  
Precipitation 0.00 in - - ()
Sea Level Pressure  
Sea Level Pressure 29.97 in    
Wind  
Wind Speed 6 mph (NNW)    
Max Wind Speed 18 mph    
Max Gust Speed 24 mph    
Visibility 8 miles    
Events Fog , Snow    
Averages and records for this station are not official NWS values.
T = Trace of Precipitation, MM = Missing Value Source: NWS Daily Summary

Daily Weather History Graph

Daily Weather History Graph

Search for Another Location

Airport:

Trip Planner

Search our weather history database for the weather conditions in past years. The results will help you decide how hot, cold, wet, or windy it might be!

Date:

Astronomy

Jan. 05, 2013 Rise Set
Actual Time 8:05 AM CST 4:53 PM CST
Civil Twilight 7:31 AM CST 5:27 PM CST
Nautical Twilight 6:53 AM CST 6:05 PM CST
Astronomical Twilight 6:17 AM CST 6:41 PM CST
Moon 1:01 AM CST (1/5) 11:54 AM CST (1/5)
Length of Visible Light 9h 56m
Length of Day
8h 48m
Last Quarter, 44% of the Moon is Illuminated
Jan 5
Last Quarter
Jan 11
New
Jan 18
First Quarter
Jan 26
Full
Feb 3
Last Quarter

Hourly Weather History & Observations

Time (CST) Temp. Windchill Dew Point Humidity Pressure Visibility Wind Dir Wind Speed Gust Speed Precip Events Conditions
12:15 AM 8.6 °F 2.0 °F 6.8 °F 92% 30.02 in 10.0 mi North 3.5 mph - N/A   Clear
12:35 AM 8.6 °F 2.0 °F 5.0 °F 85% 30.01 in 10.0 mi NE 3.5 mph - N/A   Clear
12:55 AM 10.4 °F 0.8 °F 6.8 °F 85% 29.99 in 10.0 mi East 5.8 mph - N/A   Clear
1:15 AM 6.8 °F - 5.0 °F 92% 30.00 in 10.0 mi Calm Calm - N/A   Clear
1:35 AM 10.4 °F -0.4 °F 8.6 °F 92% 29.98 in 10.0 mi ESE 6.9 mph - N/A   Clear
1:55 AM 10.4 °F -1.5 °F 8.6 °F 92% 29.97 in 10.0 mi East 8.1 mph - N/A   Clear
2:15 AM 10.4 °F -0.4 °F 8.6 °F 92% 29.96 in 10.0 mi ESE 6.9 mph - N/A   Clear
2:35 AM 10.4 °F 4.0 °F 8.6 °F 92% 29.98 in 10.0 mi East 3.5 mph - N/A   Clear
2:55 AM 10.4 °F 2.2 °F 8.6 °F 92% 29.98 in 10.0 mi East 4.6 mph - N/A   Clear
3:15 AM 12.2 °F 2.9 °F 10.4 °F 92% 29.98 in 10.0 mi ESE 5.8 mph - N/A   Clear
3:35 AM 10.4 °F 0.8 °F 8.6 °F 92% 29.97 in 10.0 mi ESE 5.8 mph - N/A   Clear
3:55 AM 10.4 °F 0.8 °F 6.8 °F 85% 29.96 in 10.0 mi ESE 5.8 mph - N/A   Clear
4:15 AM 10.4 °F 0.8 °F 8.6 °F 92% 29.95 in 10.0 mi SE 5.8 mph - N/A   Clear
4:35 AM 10.4 °F 0.8 °F 8.6 °F 92% 29.93 in 10.0 mi SE 5.8 mph - N/A   Clear
4:55 AM 10.4 °F -0.4 °F 8.6 °F 92% 29.93 in 10.0 mi SSE 6.9 mph - N/A   Clear
5:15 AM 8.6 °F -1.3 °F 6.8 °F 92% 29.92 in 10.0 mi SE 5.8 mph - N/A   Clear
5:35 AM 8.6 °F -1.3 °F 6.8 °F 92% 29.92 in 10.0 mi SE 5.8 mph - N/A   Clear
6:15 AM 8.6 °F 0.1 °F 6.8 °F 92% 29.90 in 10.0 mi SE 4.6 mph - N/A   Clear
6:35 AM 8.6 °F 2.0 °F 5.0 °F 85% 29.90 in 10.0 mi SE 3.5 mph - N/A   Clear
6:55 AM 6.8 °F -0.1 °F 5.0 °F 92% 29.89 in 10.0 mi SSE 3.5 mph - N/A   Clear
7:15 AM 5.0 °F - 3.2 °F 92% 29.89 in 10.0 mi Calm Calm - N/A   Clear
7:35 AM 6.8 °F - 3.2 °F 85% 29.89 in 10.0 mi Calm Calm - N/A   Clear
7:55 AM 3.2 °F - 1.4 °F 92% 29.89 in 10.0 mi Calm Calm - N/A   Scattered Clouds
8:15 AM 5.0 °F - 3.2 °F 92% 29.89 in 7.0 mi Calm Calm - N/A   Overcast
8:35 AM 5.0 °F - 3.2 °F 92% 29.89 in 10.0 mi Calm Calm - N/A   Overcast
9:15 AM 3.2 °F - 1.4 °F 92% 29.91 in 10.0 mi Calm Calm - N/A   Overcast
9:35 AM 6.8 °F - 5.0 °F 92% 29.91 in 0.2 mi Calm Calm - N/A Fog Light Freezing Fog
9:55 AM 8.6 °F - 5.0 °F 85% 29.91 in 0.2 mi Calm Calm - N/A Snow Light Snow
10:15 AM 8.6 °F - 5.0 °F 85% 29.91 in 0.2 mi Calm Calm - N/A Fog Light Freezing Fog
10:35 AM 10.4 °F - 6.8 °F 85% 29.92 in 1.8 mi Calm Calm - N/A Snow Light Snow
10:55 AM 10.4 °F - 6.8 °F 85% 29.92 in 5.0 mi Calm Calm - N/A Snow Light Snow
11:15 AM 10.4 °F - 8.6 °F 92% 29.91 in 5.0 mi Calm Calm - N/A Snow Light Snow
11:35 AM 10.4 °F - 8.6 °F 92% 29.90 in 1.5 mi Calm Calm - N/A Snow Light Snow
12:15 PM 10.4 °F 4.0 °F 8.6 °F 92% 29.90 in 4.0 mi WNW 3.5 mph - N/A Snow Light Snow
12:35 PM 10.4 °F -0.4 °F 8.6 °F 92% 29.89 in 7.0 mi NNW 6.9 mph - N/A Snow Light Snow
12:55 PM 12.2 °F - 8.6 °F 85% 29.89 in 3.0 mi Calm Calm - N/A Snow Light Snow
1:15 PM 12.2 °F 4.3 °F 10.4 °F 92% 29.89 in 4.0 mi NW 4.6 mph - N/A Snow Light Snow
1:35 PM 12.2 °F 1.7 °F 10.4 °F 92% 29.88 in 3.0 mi NW 6.9 mph - N/A Snow Light Snow
2:15 PM 12.2 °F -1.8 °F 8.6 °F 85% 29.90 in 4.0 mi WNW 11.5 mph - N/A Snow Light Snow
2:35 PM 10.4 °F -7.2 °F 8.6 °F 92% 29.91 in 2.0 mi WNW 17.3 mph - N/A Snow Light Snow
2:55 PM 10.4 °F -6.0 °F 8.6 °F 92% 29.91 in 5.0 mi NW 15.0 mph - N/A Snow Light Snow
3:15 PM 10.4 °F -6.0 °F 6.8 °F 85% 29.91 in 5.0 mi NW 15.0 mph - N/A Snow Light Snow
3:35 PM 8.6 °F -8.9 °F 6.8 °F 92% 29.93 in 5.0 mi NW 16.1 mph - N/A Snow Light Snow
3:55 PM 8.6 °F -8.9 °F 6.8 °F 92% 29.95 in 5.0 mi NW 16.1 mph 23.0 mph N/A Snow Light Snow
4:15 PM 8.6 °F -9.5 °F 6.8 °F 92% 29.95 in 3.0 mi NW 17.3 mph - N/A Snow Light Snow
4:35 PM 10.4 °F -7.7 °F 8.6 °F 92% 29.96 in 5.0 mi NW 18.4 mph - N/A Snow Light Snow
4:55 PM 10.4 °F -6.0 °F 8.6 °F 92% 29.96 in 4.0 mi NW 15.0 mph - N/A Snow Light Snow
5:15 PM 12.2 °F -4.3 °F 10.4 °F 92% 29.98 in 4.0 mi NW 16.1 mph - N/A   Overcast
5:35 PM 12.2 °F -5.3 °F 10.4 °F 92% 29.99 in 4.0 mi NW 18.4 mph 23.0 mph N/A   Overcast
5:55 PM 12.2 °F -4.3 °F 10.4 °F 92% 29.99 in 3.0 mi NNW 16.1 mph 24.2 mph N/A   Overcast
6:15 PM 14.0 °F -0.2 °F 12.2 °F 93% 30.00 in 10.0 mi NNW 12.7 mph 21.9 mph N/A   Overcast
6:35 PM 14.0 °F -0.2 °F 12.2 °F 93% 30.00 in 10.0 mi NNW 12.7 mph 19.6 mph N/A   Overcast
7:15 PM 12.2 °F -3.1 °F 10.4 °F 92% 30.02 in 10.0 mi NW 13.8 mph - N/A   Overcast
7:35 PM 12.2 °F -4.3 °F 10.4 °F 92% 30.03 in 10.0 mi NW 16.1 mph - N/A   Scattered Clouds
7:55 PM 10.4 °F -6.6 °F 8.6 °F 92% 30.04 in 10.0 mi NW 16.1 mph - N/A   Clear
8:15 PM 10.4 °F -6.0 °F 8.6 °F 92% 30.05 in 10.0 mi NW 15.0 mph 20.7 mph N/A   Clear
8:35 PM 10.4 °F -5.4 °F 8.6 °F 92% 30.06 in 10.0 mi NW 13.8 mph - N/A   Clear
8:55 PM 10.4 °F -6.6 °F 6.8 °F 85% 30.07 in 10.0 mi NW 16.1 mph - N/A   Clear
9:15 PM 8.6 °F -7.7 °F 5.0 °F 85% 30.07 in 10.0 mi NNW 13.8 mph - N/A   Clear
9:35 PM 8.6 °F -8.3 °F 5.0 °F 85% 30.06 in 10.0 mi NW 15.0 mph 20.7 mph N/A   Clear
9:55 PM 8.6 °F -7.7 °F 3.2 °F 79% 30.06 in 10.0 mi NW 13.8 mph - N/A   Clear
10:15 PM 6.8 °F -10.0 °F 3.2 °F 85% 30.07 in 10.0 mi NW 13.8 mph - N/A   Clear
10:35 PM 5.0 °F -9.1 °F 1.4 °F 85% 30.07 in 10.0 mi NW 9.2 mph - N/A   Clear
10:55 PM 5.0 °F -10.8 °F 1.4 °F 85% 30.08 in 10.0 mi NW 11.5 mph - N/A   Clear
11:15 PM 5.0 °F -12.3 °F 1.4 °F 85% 30.11 in 10.0 mi NW 13.8 mph - N/A   Clear
11:35 PM 5.0 °F -9.1 °F 1.4 °F 85% 30.10 in 10.0 mi NW 9.2 mph - N/A   Scattered Clouds
11:55 PM 5.0 °F -9.1 °F 3.2 °F 92% 30.10 in 10.0 mi NW 9.2 mph - N/A   Mostly Cloudy